This is the latest recevied weather packets stored in our database for station/object VK2KGV-15. If no packets are shown the sender has not sent any weather packets the latest 10 day(s).
| Time | Temp. | Humidity | Pressure | Rain* | Wind** | Luminosity | Snow |
|---|---|---|---|---|---|---|---|
| 1777894130 | 14.44° C | 57% | 1018.6 hPa | 0 mm | - | - | - |
| 1777892924 | 14.44° C | 57% | 1018.6 hPa | 0 mm | - | - | - |
| 1777891718 | 13.89° C | 56% | 1018.5 hPa | 0 mm | - | - | - |
| 1777889305 | 13.89° C | 56% | 1018.1 hPa | 0 mm | - | - | - |
| 1777888099 | 14.44° C | 54% | 1017.9 hPa | 0 mm | - | - | - |
| 1777887496 | 14.44° C | 53% | 1017.9 hPa | 0 mm | - | - | - |
| 1777886893 | 15° C | 53% | 1017.8 hPa | 0 mm | - | - | - |
| 1777886290 | 15° C | 52% | 1017.9 hPa | 0 mm | - | - | - |
| 1777885687 | 15.56° C | 51% | 1017.8 hPa | 0 mm | - | - | - |
| 1777884481 | 16.11° C | 49% | 1017.3 hPa | 0 mm | - | - | - |
| 1777883878 | 16.67° C | 48% | 1017.4 hPa | 0 mm | - | - | - |
| 1777882068 | 18.33° C | 45% | 1017.1 hPa | 0 mm | - | - | - |
| 1777881465 | 18.89° C | 43% | 1016.9 hPa | 0 mm | - | - | - |
| 1777880862 | 20° C | 42% | 1016.5 hPa | 0 mm | - | - | - |
| 1777879656 | 21.67° C | 39% | 1016.5 hPa | 0 mm | - | - | - |
| 1777878450 | 23.33° C | 36% | 1016 hPa | 0 mm | - | - | - |
| 1777877243 | 24.44° C | 35% | 1015.6 hPa | 0 mm | - | - | - |
| 1777874831 | 25.56° C | 32% | 1015.3 hPa | 0 mm | - | - | - |
| 1777873625 | 26.11° C | 31% | 1015.3 hPa | 0 mm | - | - | - |
| 1777872419 | 27.22° C | 29% | 1015 hPa | 0 mm | - | - | - |
| 1777871212 | 27.78° C | 27% | 1015.1 hPa | 0 mm | - | - | - |
| 1777870006 | 27.78° C | 26% | 1015 hPa | 0 mm | - | - | - |
| 1777867594 | 27.22° C | 29% | 1015.2 hPa | 0 mm | - | - | - |
| 1777866388 | 27.78° C | 29% | 1015.4 hPa | 0 mm | - | - | - |
| 1777865181 | 27.22° C | 30% | 1015.7 hPa | 0 mm | - | - | - |
* Rain since midnight (hover to see other rain measurements)
** Current wind speed in m/s (hover to see current wind gust speed)